Torrington, WY

1:08 PM MDT on October 01, 2016 (GMT -0600)
Torrington Municipal

Weather History for KTOR - May, 2013

Change the Weather History Date:

Friday, May 10, 2013

  Actual Average Record
Temperature  
Mean Temperature 57 °F 55 °F  
Max Temperature 72 °F 70 °F 91 °F (2012)
Min Temperature 41 °F 40 °F 29 °F (2006)
Degree Days  
Heating Degree Days 8 11  
Month to date heating degree days 167 120  
Since 1 July heating degree days 6384 6352  
Cooling Degree Days 0 0  
Month to date cooling degree days 0 0  
Year to date cooling degree days 0 1  
Growing Degree Days 6 (Base 50)    
Moisture  
Dew Point 37 °F    
Average Humidity 59    
Maximum Humidity 100    
Minimum Humidity 17    
Precipitation  
Precipitation T in 0.06 in 0.46 in (2015)
Month to date precipitation 0.37 0.69  
Year to date precipitation 2.82 3.70  
Sea Level Pressure  
Sea Level Pressure 30.14 in    
Wind  
Wind Speed 9 mph (North)    
Max Wind Speed 39 mph    
Max Gust Speed 48 mph    
Visibility 9 miles    
Events      
T = Trace of Precipitation, MM = Missing Value Source: NWS Daily Summary

Daily Weather History Graph

Daily Weather History Graph

Search for Another Location

Airport or City:

Trip Planner

Search our weather history database for the weather conditions in past years. The results will help you decide how hot, cold, wet, or windy it might be!

Date:

Astronomy

May. 10, 2013 Rise Set
Actual Time 5:40 AM MDT 8:05 PM MDT
Civil Twilight 5:09 AM MDT 8:37 PM MDT
Nautical Twilight 4:30 AM MDT 9:16 PM MDT
Astronomical Twilight 3:47 AM MDT 10:00 PM MDT
Moon 6:06 AM MDT (5/10) 8:57 PM MDT (5/10)
Length of Visible Light 15h 27m
Length of Day
14h 24m
New Moon, 1% of the Moon is Illuminated
May 10
New Moon
May 17
First Quarter
May 24
Full
May 31
Last Quarter
Jun 8
New

Hourly Weather History & Observations

Time (MDT) Temp. Windchill Dew Point Humidity Pressure Visibility Wind Dir Wind Speed Gust Speed Precip Events Conditions
12:53 AM 48.9 °F - 46.0 °F 90% 30.11 in 10.0 mi West 6.9 mph - 0.00 in   Overcast
2:53 AM 46.0 °F 42.5 °F 44.1 °F 93% 30.10 in 10.0 mi NNW 6.9 mph - N/A   Clear
3:53 AM 44.1 °F 39.5 °F 42.1 °F 93% 30.11 in 10.0 mi North 8.1 mph - 0.01 in   Clear
4:53 AM 44.1 °F 42.5 °F 42.1 °F 93% 30.11 in 10.0 mi North 3.5 mph - N/A   Clear
5:42 AM 41.0 °F 39.0 °F 41.0 °F 100% 30.17 in 1.8 mi SSE 3.5 mph - N/A   Clear
6:48 AM 42.8 °F 41.1 °F 42.8 °F 100% 30.19 in 1.2 mi West 3.5 mph - N/A   Scattered Clouds
7:00 AM 42.8 °F - 42.8 °F 100% 30.19 in 3.0 mi Calm Calm - N/A   Partly Cloudy
7:53 AM 48.0 °F - 45.0 °F 89% 30.17 in 10.0 mi Variable 3.5 mph - N/A   Clear
8:53 AM 52.0 °F - 45.0 °F 77% 30.16 in 10.0 mi WSW 4.6 mph - N/A   Clear
9:53 AM 55.9 °F - 46.9 °F 72% 30.14 in 10.0 mi WNW 8.1 mph - N/A   Clear
11:53 AM 64.9 °F - 45.0 °F 48% 30.10 in 10.0 mi Calm Calm - N/A   Partly Cloudy
12:53 PM 66.9 °F - 33.1 °F 28% 30.08 in 10.0 mi NNW 15.0 mph 25.3 mph N/A   Mostly Cloudy
1:53 PM 71.1 °F - 28.9 °F 21% 30.07 in 10.0 mi North 17.3 mph 26.5 mph N/A   Partly Cloudy
2:53 PM 70.0 °F - 26.1 °F 19% 30.08 in 10.0 mi NNW 11.5 mph 26.5 mph N/A   Partly Cloudy
3:53 PM 71.1 °F - 24.1 °F 17% 30.06 in 10.0 mi North 16.1 mph 27.6 mph N/A   Partly Cloudy
4:30 PM 71.6 °F - 23.0 °F 16% 30.13 in 10.0 mi NNW 12.7 mph 27.6 mph N/A   Clear
4:53 PM 71.1 °F - 24.1 °F 17% 30.06 in 10.0 mi NNW 12.7 mph 27.6 mph N/A   Partly Cloudy
5:41 PM 68.0 °F - 35.6 °F 30% 30.15 in 10.0 mi NNE 12.7 mph - N/A   Mostly Cloudy
5:53 PM 68.0 °F - 34.0 °F 28% 30.09 in 10.0 mi North 8.1 mph - N/A   Scattered Clouds
6:53 PM 69.1 °F - 34.0 °F 27% 30.10 in 10.0 mi NE 13.8 mph - N/A   Mostly Cloudy
7:53 PM 64.0 °F - 34.0 °F 33% 30.14 in 10.0 mi NE 13.8 mph - N/A   Overcast
8:05 PM 60.8 °F - 37.4 °F 42% 30.21 in 10.0 mi NNE 31.1 mph 48.3 mph N/A   Squalls
8:53 PM 57.0 °F - 37.9 °F 49% 30.18 in 10.0 mi NE 13.8 mph - N/A   Partly Cloudy
9:53 PM 55.9 °F - 39.9 °F 55% 30.20 in 10.0 mi NNE 12.7 mph - N/A   Clear
10:53 PM 54.0 °F - 39.0 °F 57% 30.22 in 10.0 mi NNE 15.0 mph - N/A   Clear
11:53 PM 53.1 °F - 39.9 °F 61% 30.25 in 10.0 mi North 4.6 mph - N/A   Scattered Clouds